SCP
0 0 0 0 0 0 0 0 0 0 0 0 0 0 0 0 0 0 0 0 0 0 0 0 0 0 0 0 0 0 0 0 0 0 0 0 0 0 0 0 0 0 0
0 0 0 0 0 0 0 0 0 0 0 0 0 0 0 0 0 0 0 0 0 0 0 0 0 0 0 0 0 0 0 0 0 0 0 0 0 0 0 0 0 0 0
0 0 0 0 0 0 0 0 0 0 0 0 0 0 0 0 0 0 0 0 0 0 0 0 0 0 0 0 0 0 0 0 0 0 0 0 0 0 0 0 0 0 0
0 0 0 0 0 0 0 0 0 0 0 0 0 0 0 0 0 0 0 0 0 0 0 0 0 0 0 0 0 0 0 0 0 0 0 0 0 0 0 0 0 0 0
0 0 0 0 0 0 0 0 0 0 0 0 0 0 0 0 0 0 0 0 0 0 0 0 0 0 0 0 0 0 0 0 0 0 0 0 0 0 0 0 0 0 0
0 0 0 0 0 0 0 0 0 0 0 0 0 0 0 0 0 0 0 0 0 0 0 0 0 0 0 0 0 0 0 0 0 0 0 0 0 0 0 0 0 0 0
0 0 0 0 0 0 0 0 0 0 0 0 0 0 0 0 0 0 0 0 0 0 0 0 0 0 0 0 0 0 0 0 0 0 0 0 0 0 0 0 0 0 0
0 0 0 0 0 0 0 0 0 0 0 0 -0 -0 0 0 0 0 0 0 0 0 0 0 0 0 0 0 0 0 0 0 0 0 0 0 0 0 0 0 0 0 0
0 0 0 0 0 0 0 0 0 0 0 0 0 -0 -0 0 -0 -0 0 0 0 0 0 0 0 0 0 0 0 0 0 0 0 0 0 0 0 0 0 0 0 0 0
0 0 0 0 0 0 0 0 0 0 0 0 0 0 0 0 -0 -0 -0 0 -0 0 0 0 0 0 0 0 0 0 0 0 0 0 0 0 0 0 0 0 0 0 0
0 0 0 0 0 0 0 0 0 0 0 0 0 0 0 0 0 0 -0 -0 -0 0 0 0 0 0 0 0 0 0 0 0 0 0 0 0 0 0 0 0 0 0 0
0 0 0 0 0 0 0 0 0 0 0 0 0 0 0 0 0 0 0 0 0 -0 0 0 0 0 0 0 0 0 0 0 0 0 0 0 0 0 0 0 0 0 0
0 0 0 0 0 0 0 0 0 0 0 0 0 0 0 0 0 0 0 0 0 0 0 -0 0 0 0 0 0 0 0 0 0 0 0 0 0 0 0 0 0 0 0
0 0 0 0 0 0 0 -0 -0 0 0 0 0 0 0 0 0 0 0 0 0 0 0 0 0 0 -0 -0 -0 0 0 0 0 0 0 0 0 0 0 0 0 0 0
0 0 0 0 0 0 0 0 0 0 0 0 0 0 0 0 0 0 0 0 0 0 0 0 0 -0 -0 0 -0 -0 0 0 0 0 0 0 0 0 0 0 0 0 0
0 0 0 0 0 0 0 0 0 0 0 0 0 0 0 0 0 0 0 0 0 0 0 0 0 0 0 -0 -0 0 0 -0 0 0 0 0 0 0 0 0 0 0 0
0 0 0 0 0 0 0 0 0 0 0 0 0 0 0 0 0 0 0 0 0 0 0 0 0 0 0 0 0 -0 -0 0 0 0 0 0 0 0 0 0 0 0 0
0 0 0 0 0 0 0 0 0 0 0 0 0 0 0 0 0 0 0 0 0 0 0 0 0 0 0 0 0 0 0 -0 0 0 0 0 0 0 0 0 0 0 0
0 0 0 0 0 0 0 0 0 0 0 0 0 0 0 0 0 0 0 0 0 0 0 0 0 0 0 0 0 0 0 0 -0 -0 -0 0 0 0 0 0 0 0 0
0 0 0 0 0 0 0 0 0 0 0 0 0 0 0 0 0 0 0 0 0 0 0 0 0 0 0 0 0 0 0 0 0 -0 -0 -0 0 0 0 0 0 0 0
0 0 0 0 0 0 0 0 0 0 0 0 0 0 0 0 0 0 0 0 0 0 0 0 0 0 0 0 0 0 0 0 0 0 -0 -0 0 0 0 0 0 0 0
0 0 0 0 0 0 0 0 0 0 0 0 0 0 0 0 0 0 0 0 0 0 0 0 0 0 0 0 0 0 0 0 0 0 0 0 -0 0 0 0 0 0 0
0 0 0 0 0 0 0 0 0 0 0 0 0 0 0 0 0 0 0 0 0 0 0 0 0 0 0 0 0 0 0 0 0 0 0 0 0 0 0 0 0 0 0
0 0 0 0 0 0 0 0 0 0 0 0 0 0 0 0 0 0 0 0 0 0 0 0 0 0 0 0 0 0 0 0 0 0 0 0 0 0 0 0 0 0 0
0 0 0 0 0 0 0 0 0 0 0 0 0 0 0 0 0 0 0 0 0 0 0 0 0 0 0 0 0 0 0 0 0 0 0 0 0 0 0 0 0 0 0
0 0 0 0 0 0 0 0 0 0 0 0 0 0 0 0 0 0 0 0 0 0 0 0 0 0 0 0 0 0 0 0 0 0 0 0 0 0 0 0 0 0 0
Wind_Speed_500mb
18 21 22 22 26 24 28 32 27 26 22 20 21 22 24 25 26 25 23 22 21 21 21 19 19 22 23 21 26 19 12 11 12 14 19 25 27 27 29 32 33 32 33
18 20 22 21 11 21 28 22 22 21 19 20 23 26 28 29 30 30 30 28 28 27 25 25 24 23 19 20 24 31 19 15 16 16 16 17 20 21 25 27 26 27 28
17 18 18 23 20 24 27 21 24 22 24 28 27 29 32 33 34 34 35 34 34 33 32 30 30 30 29 24 18 33 33 22 18 19 18 18 19 21 23 21 21 22 24
9 4 7 8 13 12 20 26 26 26 28 33 38 38 36 38 39 40 40 38 38 38 37 35 34 34 33 34 26 32 31 39 29 21 23 22 22 23 26 24 24 23 23
8 9 12 12 17 24 29 31 32 35 37 39 43 47 45 47 47 47 45 44 44 43 42 41 41 40 38 38 36 31 33 44 37 32 25 27 27 26 27 27 26 26 25
15 18 21 24 26 28 29 31 33 36 38 39 44 49 48 46 49 49 48 47 47 47 46 46 47 46 45 43 43 41 38 42 37 44 37 29 29 29 29 29 29 30 30
3 2 4 8 10 14 17 19 23 24 24 32 44 46 37 19 26 22 28 33 35 40 45 48 49 51 50 49 48 46 49 40 48 42 47 48 36 33 31 32 32 32 32
19 16 14 13 13 12 14 19 25 28 29 34 43 44 33 33 13 30 34 25 26 26 30 35 41 48 53 53 52 52 52 51 51 53 50 50 51 47 37 37 36 35 35
25 24 24 23 23 24 27 30 31 35 36 32 30 25 20 18 68 41 50 44 29 32 32 37 38 41 43 48 54 56 57 58 63 64 59 52 51 53 53 41 39 39 39
24 24 25 26 28 28 28 33 36 37 37 41 33 23 21 36 32 55 63 73 70 64 54 51 51 51 52 56 53 52 55 61 64 65 66 67 62 56 59 52 46 42 42
24 26 28 29 30 32 33 33 35 37 39 40 42 44 38 33 34 47 78 91 85 78 76 74 69 60 53 56 61 65 64 58 61 68 70 71 72 65 63 59 57 50 47
25 28 32 35 38 39 41 43 43 44 43 42 41 43 44 43 44 43 53 71 87 93 85 82 79 75 71 64 60 60 63 67 71 71 69 71 74 76 74 69 63 59 54
37 40 42 44 46 48 50 50 50 51 53 55 53 53 51 51 52 54 60 68 72 91 96 95 84 80 72 70 66 59 58 61 67 73 77 78 76 76 79 81 75 69 66
33 36 39 44 49 54 61 67 70 71 71 69 67 64 63 61 60 62 65 68 82 69 80 92 86 93 82 72 66 67 65 61 61 64 69 78 81 79 77 81 85 82 79
32 36 42 48 52 57 62 66 68 70 74 79 83 84 80 76 72 70 72 71 72 75 80 73 78 84 81 87 87 79 76 71 63 68 71 71 72 80 82 78 82 87 87
43 50 55 60 66 71 77 81 86 86 85 79 77 78 81 85 91 89 83 79 78 86 94 77 90 105 103 102 98 90 85 80 76 69 70 75 77 75 74 81 83 85 89
52 56 62 66 71 77 81 85 86 88 88 89 87 88 88 86 90 92 94 95 93 87 93 110 92 97 107 105 105 101 98 90 86 82 74 72 78 84 84 77 77 87 90
55 60 64 70 77 83 86 85 84 83 85 87 89 89 92 93 95 94 96 99 99 92 80 107 106 87 82 100 107 104 102 101 97 90 83 78 75 80 85 90 87 79 86
59 64 72 80 88 90 89 87 86 85 85 86 88 90 92 90 93 87 70 77 80 84 77 83 108 89 78 69 90 106 107 107 106 101 90 83 81 77 83 86 90 92 83
68 74 81 87 89 90 87 85 84 86 88 89 88 85 81 78 79 80 79 79 76 71 78 73 86 90 74 68 64 68 84 99 108 107 105 94 84 82 81 86 88 89 89
74 83 88 87 86 84 83 82 83 83 82 82 79 76 75 71 72 70 68 72 68 72 83 80 88 89 92 75 66 67 70 66 85 96 101 103 96 87 87 85 90 90 89
82 86 86 86 85 83 82 82 78 75 73 75 80 73 70 67 63 61 62 63 61 68 78 83 88 76 85 82 75 67 74 76 81 72 70 93 86 89 85 83 80 86 86
84 84 83 84 85 84 81 77 72 71 72 71 69 69 70 65 67 66 62 59 59 59 62 73 89 92 99 78 70 75 74 75 73 53 58 88 79 94 95 87 82 72 74
82 84 85 83 83 81 77 73 71 69 70 69 67 63 65 66 60 58 62 67 66 65 62 65 70 82 95 96 82 81 88 95 104 109 99 98 80 93 90 100 84 76 73
82 82 81 82 81 79 71 68 65 68 68 69 66 62 61 68 60 56 63 73 78 78 73 68 69 75 78 77 86 87 89 69 78 77 62 83 99 112 93 93 103 87 75
78 77 79 78 76 74 65 63 58 56 63 69 71 73 72 62 59 58 67 75 84 86 82 81 81 82 77 76 70 75 101 96 91 94 81 96 87 81 84 90 102 98 88
Wind_Direction_500mb
281 279 285 294 298 295 304 307 314 311 302 297 292 285 281 279 278 278 280 284 286 290 295 299 303 309 318 315 316 332 333 324 312 294 279 276 282 281 277 275 273 272 276
260 271 283 283 281 304 306 315 315 309 297 294 297 292 286 281 278 276 275 274 276 278 281 284 285 284 279 295 285 308 317 314 310 301 293 287 285 281 279 280 282 279 275
239 252 256 259 306 308 302 311 317 320 319 308 295 292 287 282 279 276 273 273 274 277 278 279 281 282 279 271 255 282 302 304 304 300 296 292 292 289 283 284 281 281 281
150 112 323 298 285 288 317 306 299 298 305 310 310 289 286 280 275 273 271 270 269 268 269 272 272 273 274 275 267 264 279 287 296 295 293 291 291 290 288 287 285 282 281
329 338 328 318 312 303 298 294 296 299 303 306 303 298 287 279 277 277 278 277 272 269 265 263 265 266 266 265 260 251 255 270 283 291 292 289 290 288 286 285 282 280 278
308 303 295 290 292 294 294 296 296 298 307 310 306 304 305 297 283 280 278 274 272 272 271 268 265 263 263 262 263 255 248 264 269 282 286 284 283 284 282 281 281 282 280
113 267 311 313 315 320 325 317 319 316 321 321 324 325 338 354 312 285 286 291 284 271 266 264 263 266 265 263 260 256 252 256 260 270 281 289 284 282 279 276 274 274 276
72 65 56 45 32 15 354 342 339 339 342 342 340 341 334 332 305 324 303 300 299 298 297 290 277 269 266 262 260 259 256 248 250 259 266 276 283 285 283 277 274 272 271
51 43 35 27 19 11 6 2 355 351 346 346 343 347 333 313 316 314 300 300 300 296 295 283 281 278 280 276 267 258 255 255 247 246 249 255 269 276 280 273 269 268 269
38 29 21 13 6 2 354 352 348 345 340 338 340 337 310 302 313 310 297 296 297 298 292 288 283 280 274 271 273 272 263 255 257 254 251 255 256 259 271 270 265 265 262
24 15 9 5 358 354 350 342 336 334 333 330 329 325 317 307 297 297 299 299 296 296 296 294 292 286 278 274 270 268 265 265 262 259 258 258 255 254 252 262 261 260 259
14 6 359 355 351 345 341 338 335 331 327 322 317 313 313 313 306 297 294 296 298 299 298 295 294 294 292 285 275 271 267 264 261 260 261 260 259 259 257 255 255 254 256
354 350 347 343 341 338 335 330 327 324 320 316 313 307 302 298 297 295 294 294 294 294 295 296 296 296 295 296 294 285 275 266 263 260 257 258 260 259 256 256 253 250 252
339 336 333 331 327 326 323 322 321 319 316 313 309 305 300 295 292 291 290 294 296 291 293 293 292 292 295 297 295 296 287 278 273 267 263 259 257 259 260 256 255 253 252
327 329 330 327 326 325 322 320 316 312 308 307 307 306 304 302 297 291 287 285 286 287 286 288 287 290 290 291 292 292 290 287 278 272 270 264 260 257 257 257 254 253 252
334 333 330 327 327 325 323 321 318 314 311 307 304 301 299 300 300 299 295 290 285 282 282 281 282 286 287 288 288 286 286 286 284 278 271 268 264 260 258 256 254 252 252
327 324 323 323 322 320 319 317 313 311 309 308 307 304 301 298 295 294 293 293 290 288 284 286 284 285 285 283 283 286 284 282 281 281 278 271 267 263 259 256 255 252 250
319 318 318 318 318 318 317 315 312 309 307 305 303 302 300 300 296 293 290 288 289 289 285 288 289 287 284 285 282 280 281 283 283 280 278 275 269 266 262 257 254 255 248
314 315 317 319 320 319 318 317 314 311 308 305 303 300 299 297 294 290 288 289 289 289 287 285 288 288 285 283 285 284 280 279 280 280 279 276 273 267 264 260 255 252 250
317 319 319 319 318 317 317 316 315 312 309 307 304 302 301 299 297 294 291 282 276 287 288 281 284 287 286 286 283 283 284 281 280 280 279 277 273 269 263 261 257 252 250
316 317 316 316 316 317 318 316 314 311 308 306 304 301 299 299 296 292 291 289 283 280 276 282 279 280 281 283 279 279 275 278 281 279 278 277 275 270 266 263 259 254 249
316 316 317 318 319 319 318 316 314 309 305 301 302 301 300 302 299 292 287 285 282 277 275 280 277 283 282 276 281 272 281 270 269 272 276 280 278 273 269 265 261 260 254
318 318 318 319 318 318 318 318 314 306 303 301 300 300 300 300 303 304 299 292 286 280 277 274 273 275 274 281 279 281 268 263 269 275 270 273 272 275 271 267 265 261 259
318 318 318 318 318 320 320 318 312 306 302 301 302 302 303 309 312 303 302 300 299 297 291 288 285 280 271 271 276 277 276 278 275 272 266 271 269 267 270 273 268 265 260
318 318 318 318 320 321 322 317 312 307 305 307 309 312 316 315 309 300 299 298 296 292 291 285 282 280 278 277 269 276 276 272 269 268 269 261 262 261 265 269 271 267 262
318 318 317 319 321 322 324 318 316 310 309 312 319 320 317 304 301 297 295 294 293 294 296 297 295 294 295 291 286 270 267 271 273 273 265 262 270 260 259 259 264 266 266
Wind_Speed_850mb
18 21 22 22 26 24 28 32 27 26 22 20 21 22 24 25 26 25 23 22 21 21 21 19 19 22 23 21 26 19 12 11 12 14 19 25 27 27 29 32 33 32 33
18 20 22 21 11 21 28 22 22 21 19 20 23 26 28 29 30 30 30 28 28 27 25 25 24 23 19 20 24 31 19 15 16 16 16 17 20 21 25 27 26 27 28
17 18 18 23 20 24 27 21 24 22 24 28 27 29 32 33 34 34 35 34 34 33 32 30 30 30 29 24 18 33 33 22 18 19 18 18 19 21 23 21 21 22 24
9 4 7 8 13 12 20 26 26 26 28 33 38 38 36 38 39 40 40 38 38 38 37 35 34 34 33 34 26 32 31 39 29 21 23 22 22 23 26 24 24 23 23
8 9 12 12 17 24 29 31 32 35 37 39 43 47 45 47 47 47 45 44 44 43 42 41 41 40 38 38 36 31 33 44 37 32 25 27 27 26 27 27 26 26 25
15 18 21 24 26 28 29 31 33 36 38 39 44 49 48 46 49 49 48 47 47 47 46 46 47 46 45 43 43 41 38 42 37 44 37 29 29 29 29 29 29 30 30
3 2 4 8 10 14 17 19 23 24 24 32 44 46 37 19 26 22 28 33 35 40 45 48 49 51 50 49 48 46 49 40 48 42 47 48 36 33 31 32 32 32 32
19 16 14 13 13 12 14 19 25 28 29 34 43 44 33 33 13 30 34 25 26 26 30 35 41 48 53 53 52 52 52 51 51 53 50 50 51 47 37 37 36 35 35
25 24 24 23 23 24 27 30 31 35 36 32 30 25 20 18 68 41 50 44 29 32 32 37 38 41 43 48 54 56 57 58 63 64 59 52 51 53 53 41 39 39 39
24 24 25 26 28 28 28 33 36 37 37 41 33 23 21 36 32 55 63 73 70 64 54 51 51 51 52 56 53 52 55 61 64 65 66 67 62 56 59 52 46 42 42
24 26 28 29 30 32 33 33 35 37 39 40 42 44 38 33 34 47 78 91 85 78 76 74 69 60 53 56 61 65 64 58 61 68 70 71 72 65 63 59 57 50 47
25 28 32 35 38 39 41 43 43 44 43 42 41 43 44 43 44 43 53 71 87 93 85 82 79 75 71 64 60 60 63 67 71 71 69 71 74 76 74 69 63 59 54
37 40 42 44 46 48 50 50 50 51 53 55 53 53 51 51 52 54 60 68 72 91 96 95 84 80 72 70 66 59 58 61 67 73 77 78 76 76 79 81 75 69 66
33 36 39 44 49 54 61 67 70 71 71 69 67 64 63 61 60 62 65 68 82 69 80 92 86 93 82 72 66 67 65 61 61 64 69 78 81 79 77 81 85 82 79
32 36 42 48 52 57 62 66 68 70 74 79 83 84 80 76 72 70 72 71 72 75 80 73 78 84 81 87 87 79 76 71 63 68 71 71 72 80 82 78 82 87 87
43 50 55 60 66 71 77 81 86 86 85 79 77 78 81 85 91 89 83 79 78 86 94 77 90 105 103 102 98 90 85 80 76 69 70 75 77 75 74 81 83 85 89
52 56 62 66 71 77 81 85 86 88 88 89 87 88 88 86 90 92 94 95 93 87 93 110 92 97 107 105 105 101 98 90 86 82 74 72 78 84 84 77 77 87 90
55 60 64 70 77 83 86 85 84 83 85 87 89 89 92 93 95 94 96 99 99 92 80 107 106 87 82 100 107 104 102 101 97 90 83 78 75 80 85 90 87 79 86
59 64 72 80 88 90 89 87 86 85 85 86 88 90 92 90 93 87 70 77 80 84 77 83 108 89 78 69 90 106 107 107 106 101 90 83 81 77 83 86 90 92 83
68 74 81 87 89 90 87 85 84 86 88 89 88 85 81 78 79 80 79 79 76 71 78 73 86 90 74 68 64 68 84 99 108 107 105 94 84 82 81 86 88 89 89
74 83 88 87 86 84 83 82 83 83 82 82 79 76 75 71 72 70 68 72 68 72 83 80 88 89 92 75 66 67 70 66 85 96 101 103 96 87 87 85 90 90 89
82 86 86 86 85 83 82 82 78 75 73 75 80 73 70 67 63 61 62 63 61 68 78 83 88 76 85 82 75 67 74 76 81 72 70 93 86 89 85 83 80 86 86
84 84 83 84 85 84 81 77 72 71 72 71 69 69 70 65 67 66 62 59 59 59 62 73 89 92 99 78 70 75 74 75 73 53 58 88 79 94 95 87 82 72 74
82 84 85 83 83 81 77 73 71 69 70 69 67 63 65 66 60 58 62 67 66 65 62 65 70 82 95 96 82 81 88 95 104 109 99 98 80 93 90 100 84 76 73
82 82 81 82 81 79 71 68 65 68 68 69 66 62 61 68 60 56 63 73 78 78 73 68 69 75 78 77 86 87 89 69 78 77 62 83 99 112 93 93 103 87 75
78 77 79 78 76 74 65 63 58 56 63 69 71 73 72 62 59 58 67 75 84 86 82 81 81 82 77 76 70 75 101 96 91 94 81 96 87 81 84 90 102 98 88
Wind_Direction_850mb
281 279 285 294 298 295 304 307 314 311 302 297 292 285 281 279 278 278 280 284 286 290 295 299 303 309 318 315 316 332 333 324 312 294 279 276 282 281 277 275 273 272 276
260 271 283 283 281 304 306 315 315 309 297 294 297 292 286 281 278 276 275 274 276 278 281 284 285 284 279 295 285 308 317 314 310 301 293 287 285 281 279 280 282 279 275
239 252 256 259 306 308 302 311 317 320 319 308 295 292 287 282 279 276 273 273 274 277 278 279 281 282 279 271 255 282 302 304 304 300 296 292 292 289 283 284 281 281 281
150 112 323 298 285 288 317 306 299 298 305 310 310 289 286 280 275 273 271 270 269 268 269 272 272 273 274 275 267 264 279 287 296 295 293 291 291 290 288 287 285 282 281
329 338 328 318 312 303 298 294 296 299 303 306 303 298 287 279 277 277 278 277 272 269 265 263 265 266 266 265 260 251 255 270 283 291 292 289 290 288 286 285 282 280 278
308 303 295 290 292 294 294 296 296 298 307 310 306 304 305 297 283 280 278 274 272 272 271 268 265 263 263 262 263 255 248 264 269 282 286 284 283 284 282 281 281 282 280
113 267 311 313 315 320 325 317 319 316 321 321 324 325 338 354 312 285 286 291 284 271 266 264 263 266 265 263 260 256 252 256 260 270 281 289 284 282 279 276 274 274 276
72 65 56 45 32 15 354 342 339 339 342 342 340 341 334 332 305 324 303 300 299 298 297 290 277 269 266 262 260 259 256 248 250 259 266 276 283 285 283 277 274 272 271
51 43 35 27 19 11 6 2 355 351 346 346 343 347 333 313 316 314 300 300 300 296 295 283 281 278 280 276 267 258 255 255 247 246 249 255 269 276 280 273 269 268 269
38 29 21 13 6 2 354 352 348 345 340 338 340 337 310 302 313 310 297 296 297 298 292 288 283 280 274 271 273 272 263 255 257 254 251 255 256 259 271 270 265 265 262
24 15 9 5 358 354 350 342 336 334 333 330 329 325 317 307 297 297 299 299 296 296 296 294 292 286 278 274 270 268 265 265 262 259 258 258 255 254 252 262 261 260 259
14 6 359 355 351 345 341 338 335 331 327 322 317 313 313 313 306 297 294 296 298 299 298 295 294 294 292 285 275 271 267 264 261 260 261 260 259 259 257 255 255 254 256
354 350 347 343 341 338 335 330 327 324 320 316 313 307 302 298 297 295 294 294 294 294 295 296 296 296 295 296 294 285 275 266 263 260 257 258 260 259 256 256 253 250 252
339 336 333 331 327 326 323 322 321 319 316 313 309 305 300 295 292 291 290 294 296 291 293 293 292 292 295 297 295 296 287 278 273 267 263 259 257 259 260 256 255 253 252
327 329 330 327 326 325 322 320 316 312 308 307 307 306 304 302 297 291 287 285 286 287 286 288 287 290 290 291 292 292 290 287 278 272 270 264 260 257 257 257 254 253 252
334 333 330 327 327 325 323 321 318 314 311 307 304 301 299 300 300 299 295 290 285 282 282 281 282 286 287 288 288 286 286 286 284 278 271 268 264 260 258 256 254 252 252
327 324 323 323 322 320 319 317 313 311 309 308 307 304 301 298 295 294 293 293 290 288 284 286 284 285 285 283 283 286 284 282 281 281 278 271 267 263 259 256 255 252 250
319 318 318 318 318 318 317 315 312 309 307 305 303 302 300 300 296 293 290 288 289 289 285 288 289 287 284 285 282 280 281 283 283 280 278 275 269 266 262 257 254 255 248
314 315 317 319 320 319 318 317 314 311 308 305 303 300 299 297 294 290 288 289 289 289 287 285 288 288 285 283 285 284 280 279 280 280 279 276 273 267 264 260 255 252 250
317 319 319 319 318 317 317 316 315 312 309 307 304 302 301 299 297 294 291 282 276 287 288 281 284 287 286 286 283 283 284 281 280 280 279 277 273 269 263 261 257 252 250
316 317 316 316 316 317 318 316 314 311 308 306 304 301 299 299 296 292 291 289 283 280 276 282 279 280 281 283 279 279 275 278 281 279 278 277 275 270 266 263 259 254 249
316 316 317 318 319 319 318 316 314 309 305 301 302 301 300 302 299 292 287 285 282 277 275 280 277 283 282 276 281 272 281 270 269 272 276 280 278 273 269 265 261 260 254
318 318 318 319 318 318 318 318 314 306 303 301 300 300 300 300 303 304 299 292 286 280 277 274 273 275 274 281 279 281 268 263 269 275 270 273 272 275 271 267 265 261 259
318 318 318 318 318 320 320 318 312 306 302 301 302 302 303 309 312 303 302 300 299 297 291 288 285 280 271 271 276 277 276 278 275 272 266 271 269 267 270 273 268 265 260
318 318 318 318 320 321 322 317 312 307 305 307 309 312 316 315 309 300 299 298 296 292 291 285 282 280 278 277 269 276 276 272 269 268 269 261 262 261 265 269 271 267 262
318 318 317 319 321 322 324 318 316 310 309 312 319 320 317 304 301 297 295 294 293 294 296 297 295 294 295 291 286 270 267 271 273 273 265 262 270 260 259 259 264 266 266